User: anonymous   Login
Location: Unspecified
(0.0000°N, 0.0000°E)
Time: 20:41:17
(UTC+00:00)
Language:

Quakesat - Orbit

View from above orbital plane
View from above orbital plane
View from above satellite
View from above satellite

Ground track
Ground track

The orbit data is extracted from the following two-line orbital elements,

1 27845U 03031F   21270.47147240  .00000100  00000-0  64515-4 0  9990
2 27845  98.6771 278.2558 0009335 158.7256 201.4312 14.22394048946376
Epoch (UTC): 27 September 2021 11:18:55
Eccentricity: 0.0009335
inclination: 98.6771°
perigee height: 810 km
apogee height: 824 km
right ascension of ascending node: 278.2558°
argument of perigee: 158.7256°
revolutions per day: 14.22394048
mean anomaly at epoch: 201.4312°
orbit number at epoch: 94637

The dashed part of the orbit path shows where the satellite is in the earth's shadow,  

DLR